Location: Shenandoah County Park
(38.9356°N, 78.4524°W)
Time: 23:49:45
(UTC-04:00)

Transit 4A - Pass Details

Date: 13 June 2023
Orbit: 862 x 981 km, 66.8° (Epoch: 02 October)

Event Time Altitude Azimuth Distance (km) Brightness Sun altitude
Rises 22:18:42 0° 330° (NNW) 3,665 12.7 -15.5°
Reaches altitude 10° 22:21:15 10° 330° (NNW) 2,724 11.6 -15.8°
Maximum altitude 22:27:39 83° 243° (WSW) 993 8.0 -16.7°
Enters shadow 22:31:38 25° 158° (SSE) 1,864 8.9 -17.1°
